This is the latest recevied weather packets stored in our database for station/object CE3SUR-17. If no packets are shown the sender has not sent any weather packets the latest 10 day(s).
| Time | Temp. | Humidity | Pressure | Rain* | Wind** | Luminosity | Snow |
|---|---|---|---|---|---|---|---|
| 1777620521 | 20° C | 46% | 959.8 hPa | - | - | - | - |
| 1777618721 | 20° C | 46% | 959.6 hPa | - | - | - | - |
| 1777616920 | 20.56° C | 46% | 959.6 hPa | - | - | - | - |
| 1777615120 | 20.56° C | 46% | 959.5 hPa | - | - | - | - |
| 1777613319 | 21.11° C | 45% | 959.3 hPa | - | - | - | - |
| 1777611519 | 21.11° C | 45% | 959.5 hPa | - | - | - | - |
| 1777609719 | 21.11° C | 45% | 959.7 hPa | - | - | - | - |
| 1777608149 | 21.67° C | 45% | 959.4 hPa | - | - | - | - |
| 1777607921 | 21.67° C | 45% | 959.4 hPa | - | - | - | - |
| 1777606120 | 22.22° C | 45% | 959 hPa | - | - | - | - |
| 1777604320 | 22.78° C | 44% | 958.8 hPa | - | - | - | - |
| 1777602520 | 22.78° C | 44% | 958.8 hPa | - | - | - | - |
| 1777600720 | 23.33° C | 44% | 958.5 hPa | - | - | - | - |
| 1777582720 | 31.11° C | 40% | 954.3 hPa | - | - | - | - |
| 1777580920 | 31.67° C | 40% | 954.1 hPa | - | - | - | - |
| 1777573719 | 31.11° C | 41% | 953.9 hPa | - | - | - | - |
| 1777568380 | 28.89° C | 41% | 954.8 hPa | - | - | - | - |
| 1777564720 | 27.22° C | 42% | 955.2 hPa | - | - | - | - |
| 1777562920 | 26.11° C | 43% | 955.2 hPa | - | - | - | - |
| 1777552119 | 19.44° C | 44% | 953.9 hPa | - | - | - | - |
| 1777544917 | 20° C | 44% | 953.7 hPa | - | - | - | - |
| 1777541318 | 20.56° C | 44% | 953.7 hPa | - | - | - | - |
| 1777537722 | 21.11° C | 44% | 953.7 hPa | - | - | - | - |
| 1777535918 | 21.67° C | 44% | 953.7 hPa | - | - | - | - |
| 1777534117 | 21.67° C | 44% | 953.8 hPa | - | - | - | - |
* Rain since midnight (hover to see other rain measurements)
** Current wind speed in m/s (hover to see current wind gust speed)